Location: Commerce
(34.0006°N, 118.1598°W)
Time: 06:35:01
(UTC+00:00)

Daily predictions for brighter satellites

Satellite Brightness Start Highest point End
(mag) Time Altitude Azimuth Time Altitude Azimuth Time Altitude Azimuth
Cosmos 1633 4.4 12:02:47 10° WSW 12:04:16 12° WNW 12:05:45 10° NW
SL-16 R/B 2.9 12:01:47 10° NNW 12:07:23 60° ENE 12:12:57 10° SSE
IRS-1C 4.2 12:07:38 10° NNE 12:13:00 90° WNW 12:18:19 10° SSW
Cosmos 2322 Rocket 3.6 12:09:12 10° N 12:14:37 45° ENE 12:19:58 10° SE
Cosmos 1606 Rocket 3.9 12:14:10 10° NNW 12:18:18 46° W 12:22:26 10° SSW
